sat.trackr.live / text

‹ back to catalog

STARLINK-35073

NORAD 65385 · 2025-191G

PAYLOAD ACTIVE UNKNOWN

§ Identity

Operator
Country
US
Launch date
2025-08-30
Launch site
AFWTR
Launch vehicle
Mass (kg)
RCS (m²)

Purposes: comms

External: N2YO · Heavens-Above · Gunter

§ Orbital elements

Epoch: 2026-05-25T03:24:01.633248Z

Period
95.64 min
Inclination
97.4513°
Eccentricity
0.0002503
Mean motion
15.05654491 rev/d
Perigee alt
547.8 km
Apogee alt
551.2 km
Semi-major
6,927.6 km
B*
1.8766e-4
RAAN
16.5102°
Arg perigee
92.1389°
Mean anomaly
268.0125°
Rev number
4,177

§ Raw data

STARLINK-350731 65385U 25191G   26145.14168557  .00002650  00000+0  18766-3 0  99932 65385  97.4513  16.5102 0002503  92.1389 268.0125 15.05654491 41778

JSON: /api/v1/satellites/65385 · /tle

For live sub-satellite position, see the globe view (requires WebGL).

§ Visibility from observer

Set your observer location to see the next 7 days of passes ≥ 10°. The values pass through the URL so the page stays shareable.

No JS? Fill the form by hand. The geolocation button needs JavaScript.